Weather History for Manchester, NH

Change the Weather History Date:

Wednesday, December 4, 2013

  Actual Average Record
Temperature  
Mean Temperature 34 °F -  
Max Temperature 42 °F 42 °F 66 °F (1998)
Min Temperature 27 °F 21 °F 1 °F (1976)
Degree Days  
Heating Degree Days 30    
Moisture  
Dew Point 24 °F    
Average Humidity 70    
Maximum Humidity 89    
Minimum Humidity 47    
Precipitation  
Precipitation 0.00 in - - ()
Sea Level Pressure  
Sea Level Pressure 30.13 in    
Wind  
Wind Speed 2 mph (WNW)    
Max Wind Speed 9 mph    
Max Gust Speed -    
Visibility 10 miles    
Events      
Averages and records for this station are not official NWS values.
T = Trace of Precipitation, MM = Missing Value Source: NWS Daily Summary

Daily Weather History Graph

Daily Weather History Graph

Search for Another Location

Airport:

Trip Planner

Search our weather history database for the weather conditions in past years. The results will help you decide how hot, cold, wet, or windy it might be!

Date:

Astronomy

Dec. 04, 2013 Rise Set
Actual Time 7:00 AM EST 4:11 PM EST
Civil Twilight 6:28 AM EST 4:43 PM EST
Nautical Twilight 5:53 AM EST 5:18 PM EST
Astronomical Twilight 5:18 AM EST 5:53 PM EST
Moon 8:24 AM EST (12/4) 6:19 PM EST (12/4)
Length of Visible Light 10h 14m
Length of Day
9h 11m
Waxing Crescent, 4% of the Moon is Illuminated
Dec 4
Waxing Crescent
Dec 9
First Quarter
Dec 17
Full
Dec 25
Last Quarter
Jan 1
New

Hourly Weather History & Observations

Time (EST) Temp. Windchill Dew Point Humidity Pressure Visibility Wind Dir Wind Speed Gust Speed Precip Events Conditions
12:53 AM 30.0 °F - 26.1 °F 85% 29.99 in 10.0 mi Calm Calm - N/A   Clear
1:53 AM 30.9 °F - 27.0 °F 85% 30.00 in 10.0 mi Calm Calm - N/A   Clear
2:53 AM 32.0 °F 28.7 °F 28.0 °F 85% 30.01 in 10.0 mi WSW 3.5 mph - N/A   Clear
3:53 AM 30.0 °F 26.5 °F 27.0 °F 88% 30.02 in 10.0 mi SW 3.5 mph - N/A   Clear
4:53 AM 28.0 °F - 24.1 °F 85% 30.03 in 10.0 mi Calm Calm - N/A   Clear
5:53 AM 27.0 °F - 24.1 °F 89% 30.05 in 10.0 mi Calm Calm - N/A   Clear
6:53 AM 28.0 °F - 24.1 °F 85% 30.09 in 8.0 mi Calm Calm - N/A   Clear
7:53 AM 33.1 °F 26.9 °F 21.9 °F 64% 30.12 in 10.0 mi NW 6.9 mph - N/A   Clear
8:53 AM 35.1 °F 30.1 °F 21.9 °F 59% 30.12 in 10.0 mi Variable 5.8 mph - N/A   Clear
9:53 AM 37.0 °F 31.0 °F 21.9 °F 54% 30.14 in 10.0 mi NW 8.1 mph - N/A   Clear
10:53 AM 37.9 °F 32.7 °F 21.9 °F 53% 30.12 in 10.0 mi WNW 6.9 mph - N/A   Clear
11:53 AM 39.0 °F 32.8 °F 23.0 °F 53% 30.12 in 10.0 mi NW 9.2 mph - N/A   Scattered Clouds
12:53 PM 39.9 °F 35.1 °F 23.0 °F 51% 30.12 in 10.0 mi NNW 6.9 mph - N/A   Mostly Cloudy
1:53 PM 41.0 °F 39.0 °F 23.0 °F 49% 30.12 in 10.0 mi Variable 3.5 mph - N/A   Mostly Cloudy
2:53 PM 42.1 °F 40.2 °F 23.0 °F 47% 30.13 in 10.0 mi NW 3.5 mph - N/A   Scattered Clouds
3:53 PM 41.0 °F - 23.0 °F 49% 30.16 in 10.0 mi Calm Calm - N/A   Scattered Clouds
4:53 PM 37.9 °F - 24.1 °F 57% 30.18 in 10.0 mi Calm Calm - N/A   Partly Cloudy
5:53 PM 35.1 °F 32.2 °F 24.1 °F 64% 30.19 in 10.0 mi NNW 3.5 mph - N/A   Clear
6:53 PM 34.0 °F - 25.0 °F 70% 30.20 in 10.0 mi Calm Calm - N/A   Scattered Clouds
7:53 PM 32.0 °F - 25.0 °F 75% 30.21 in 10.0 mi Calm Calm - N/A   Clear
8:53 PM 28.9 °F - 24.1 °F 82% 30.22 in 10.0 mi Calm Calm - N/A   Clear
9:53 PM 28.9 °F - 25.0 °F 85% 30.23 in 9.0 mi Calm Calm - N/A   Clear
10:53 PM 30.0 °F - 25.0 °F 82% 30.22 in 10.0 mi Calm Calm - N/A   Clear
11:53 PM 28.9 °F - 25.0 °F 85% 30.24 in 10.0 mi Calm Calm - N/A   Clear